User: anonymous   Login
Location: Borgo
(42.3939°N, 9.2791°E)
Time: 07:26:09
(UTC+00:00)
Language:

Cosmos 2026 Rocket - Orbit

View from above orbital plane
View from above orbital plane
View from above satellite
View from above satellite

Ground track
Ground track

The orbit data is extracted from the following two-line orbital elements,

1 20046U 89042B   21108.87198834  .00000087  00000-0  70264-4 0  9993
2 20046  82.9379 338.5110 0043368  97.6697 262.9389 13.78222430602112
Epoch (UTC): 18 April 2021 20:55:39
Eccentricity: 0.0043368
inclination: 82.9379°
perigee height: 938 km
apogee height: 1002 km
right ascension of ascending node: 338.5110°
argument of perigee: 97.6697°
revolutions per day: 13.78222430
mean anomaly at epoch: 262.9389°
orbit number at epoch: 60211

The dashed part of the orbit path shows where the satellite is in the earth's shadow,  

DLR